Location: Niverville
(49.6028°N, 97.0419°W)
Time: 13:46:10
(UTC-05:00)

Amateur Radio Satellites - All Passes

Search period start: 25 July 2017 13:16
Search period end: 26 July 2017 13:16
Location: Niverville, 49.6028°N, 97.0419°W

Satellite Date Start Highest point End Downlink Frequencies (MHz)
Time Altitude Azimuth
SPROUT 25 Jul 13:18:01 13:21:44 28° 95° (E) 13:25:24 437.525
ESTCUBE 1 25 Jul 13:21:18 13:25:51 81° 285° (WNW) 13:30:22 437.505/2401.250
Oscar 19 25 Jul 13:24:22 13:29:16 48° 68° (ENE) 13:34:12 437.125/150
BEESAT 3 25 Jul 13:26:26 13:30:07 36° 120° (ESE) 13:33:52 437.485
NO-84 25 Jul 13:30:26 13:33:36 64° 336° (NNW) 13:37:05 435.350 FM
AO-7 25 Jul 13:39:59 13:46:13 24° 43° (NE) 13:52:27 .
Gurwin Techsat 1B 25 Jul 13:52:57 13:58:08 56° 69° (ENE) 14:03:21 435.225
DUCHIFAT 1 25 Jul 13:55:13 13:57:41 15° 271° (W) 14:00:09 145.980
POLYITAN 1 25 Jul 13:59:25 14:00:56 12° 273° (W) 14:02:26 437.675
PCSat 25 Jul 14:00:44 14:06:06 55° 48° (NE) 14:11:25 145.827
SO-50 25 Jul 14:03:54 14:07:51 28° 34° (NE) 14:11:48 436.795
VELOX 1 25 Jul 14:05:22 14:09:51 69° 102° (ESE) 14:14:18 145.980
BEESAT 2 25 Jul 14:07:08 14:10:46 34° 119° (ESE) 14:14:26 435.950
DX 1 25 Jul 14:10:02 14:13:46 26° 94° (E) 14:17:28 434.975-435.025
50 SAT 25 Jul 14:14:40 14:17:55 37° 98° (E) 14:21:08 437.505
BUGSAT 1 25 Jul 14:21:12 14:24:38 23° 267° (W) 14:28:04 437.445
AO-85 25 Jul 14:29:52 14:33:47 61° 313° (NW) 14:37:41 145.980
UKube-1 25 Jul 14:51:34 14:55:45 45° 100° (E) 14:59:55 .
SPROUT 25 Jul 14:53:48 14:57:41 34° 293° (WNW) 15:01:32 437.525
ESTCUBE 1 25 Jul 14:59:55 15:01:55 13° 305° (NW) 15:03:56 437.505/2401.250
BEESAT 3 25 Jul 15:04:01 15:07:43 34° 320° (NW) 15:11:28 437.485
Oscar 19 25 Jul 15:04:29 15:08:48 27° 266° (W) 15:13:11 437.125/150
NO-84 25 Jul 15:08:22 15:11:30 33° 358° (N) 15:14:54 435.350 FM
ITAMSAT 1 25 Jul 15:16:43 15:21:39 43° 66° (ENE) 15:26:35 435.822/435.867
RS-15 25 Jul 15:21:10 15:30:49 29° 102° (ESE) 15:40:31 29.354- 29.394
AO-7 25 Jul 15:29:26 15:37:45 75° 66° (ENE) 15:46:08 .
Gurwin Techsat 1B 25 Jul 15:34:06 15:38:25 25° 268° (W) 15:42:46 435.225
VELOX 1 25 Jul 15:42:52 15:45:49 18° 301° (WNW) 15:48:46 145.980
SO-50 25 Jul 15:44:09 15:48:39 63° 234° (SW) 15:53:09 436.795
PCSat 25 Jul 15:44:34 15:49:15 30° 248° (WSW) 15:53:54 145.827
BEESAT 2 25 Jul 15:44:44 15:48:29 36° 319° (NW) 15:52:18 435.950
DX 1 25 Jul 15:45:58 15:50:03 39° 293° (WNW) 15:54:07 434.975-435.025
O/OREOS (USA 219) 25 Jul 15:47:22 15:51:26 35° 107° (ESE) 15:55:30 437.305
50 SAT 25 Jul 15:47:59 15:50:25 18° 296° (WNW) 15:52:49 437.505
MOZHAYETS 4 25 Jul 15:55:07 15:58:27 20° 91° (E) 16:01:46
AO-85 25 Jul 16:12:33 16:14:56 15° 335° (NNW) 16:17:22 145.980
UKube-1 25 Jul 16:28:05 16:31:32 24° 298° (WNW) 16:34:59 .
CUBESAT XI-V 25 Jul 16:32:59 16:33:44 10° 84° (E) 16:34:29 437.345
BEESAT 25 Jul 16:34:53 16:39:35 56° 101° (E) 16:44:15 436.000
BEESAT 3 25 Jul 16:44:47 16:46:27 12° 342° (NNW) 16:48:07 437.485
NO-84 25 Jul 16:46:00 16:49:29 48° 18° (NNE) 16:53:18 435.350 FM
ITUPSAT 1 25 Jul 16:48:25 16:53:12 73° 103° (ESE) 16:57:57 437.325
ITAMSAT 1 25 Jul 16:56:35 17:01:13 32° 265° (W) 17:05:54 435.822/435.867
CUTE-I 25 Jul 17:09:28 17:12:57 18° 54° (NE) 17:16:25 437.470
XW-2F 25 Jul 17:13:58 17:14:58 11° 58° (ENE) 17:15:58 145.980 - 146.000
DOVE 4 25 Jul 17:19:30 17:24:08 40° 67° (ENE) 17:28:59 437.250
AO-7 25 Jul 17:24:09 17:31:16 30° 267° (W) 17:38:26 .
BEESAT 2 25 Jul 17:25:33 17:27:22 13° 342° (NNW) 17:29:11 435.950
O/OREOS (USA 219) 25 Jul 17:26:47 17:30:51 33° 307° (NW) 17:34:56 437.305
RS-15 25 Jul 17:29:22 17:41:40 85° 126° (SE) 17:54:03 29.354- 29.394
MOZHAYETS 4 25 Jul 17:31:29 17:35:57 55° 289° (WNW) 17:40:24
XW-2D 25 Jul 17:40:56 17:43:49 21° 65° (ENE) 17:46:42 145.860 - 145.880
XW-2B 25 Jul 17:50:43 17:53:50 25° 66° (ENE) 17:56:59 145.730 - 145.750
HO-68 25 Jul 18:01:15 18:06:51 26° 51° (NE) 18:12:27 435.675
CUBESAT XI-V 25 Jul 18:07:12 18:11:54 77° 103° (ESE) 18:16:35 437.345
XW-2C 25 Jul 18:07:39 18:11:09 38° 69° (ENE) 18:14:39 145.795 - 145.815
KKS-1 25 Jul 18:08:33 18:12:52 44° 99° (E) 18:17:07 437.445
NUDT-PHONESAT 25 Jul 18:13:20 18:16:39 33° 69° (ENE) 18:19:59 437.300
BEESAT 25 Jul 18:13:20 18:17:01 23° 300° (WNW) 18:20:40 436.000
NO-84 25 Jul 18:23:23 18:27:03 50° 216° (SW) 18:30:59 435.350 FM
ITUPSAT 1 25 Jul 18:27:17 18:30:31 18° 303° (WNW) 18:33:44 437.325
KAITUO 1B 25 Jul 18:28:16 18:31:51 50° 72° (ENE) 18:35:26 145.475/437.950
CUBEBUG 2 25 Jul 18:29:01 18:30:10 11° 54° (NE) 18:31:18 437.445
LilacSat-2 25 Jul 18:31:23 18:35:09 75° 75° (ENE) 18:38:56 437.200
STARS 25 Jul 18:36:49 18:40:57 37° 98° (E) 18:45:01 437.465
CUTE 1.7 + AOD 2 25 Jul 18:41:08 18:44:12 20° 62° (ENE) 18:47:17 437.475
XW-2F 25 Jul 18:44:46 18:48:30 85° 257° (WSW) 18:52:16 145.980 - 146.000
CUTE-I 25 Jul 18:46:54 18:52:17 89° 79° (E) 18:57:43 437.470
SEEDS 25 Jul 18:52:35 18:55:20 17° 61° (ENE) 18:58:05 437.485
DOVE 4 25 Jul 18:57:25 19:01:52 33° 266° (W) 19:06:34 437.250
YUBILEINY 25 Jul 19:02:38 19:10:54 47° 87° (E) 19:19:10 435.215
XW-2D 25 Jul 19:14:19 19:17:49 36° 263° (W) 19:21:19 145.860 - 145.880
XW-2A 25 Jul 19:22:08 19:24:59 26° 67° (ENE) 19:27:50 145.665 - 145.685
UWE-3 25 Jul 19:23:20 19:26:34 20° 62° (ENE) 19:29:47 435.000/436.395/437.385
XW-2B 25 Jul 19:24:38 19:27:57 29° 264° (W) 19:31:17 145.730 - 145.750
AAUSAT CUBESAT 2 25 Jul 19:33:50 19:36:57 21° 63° (ENE) 19:40:05 437.432
STRAND 1 25 Jul 19:34:20 19:36:33 13° 86° (E) 19:38:46 437.568
ZACube-1 25 Jul 19:36:24 19:39:00 16° 59° (ENE) 19:41:35 437.345
AO-85 25 Jul 19:36:33 19:39:08 16° 26° (NNE) 19:41:48 145.980
XW-2C 25 Jul 19:42:43 19:45:29 19° 268° (W) 19:48:17 145.795 - 145.815
RS-15 25 Jul 19:43:43 19:55:34 48° 335° (NNW) 20:07:21 29.354- 29.394
KKS-1 25 Jul 19:45:31 19:49:12 25° 298° (WNW) 19:52:51 437.445
CUBESAT XI-V 25 Jul 19:45:46 19:48:44 17° 302° (WNW) 19:51:41 437.345
HO-68 25 Jul 19:46:36 19:53:48 87° 250° (WSW) 20:01:03 435.675
NUDT-PHONESAT 25 Jul 19:47:44 19:50:38 21° 267° (W) 19:53:32 437.300
Oscar 11 25 Jul 20:00:58 20:03:54 18° 60° (ENE) 20:06:51 .
CUBEBUG 2 25 Jul 20:01:20 20:05:58 66° 73° (ENE) 20:10:30 437.445
BEESAT 3 25 Jul 20:01:54 20:04:55 20° 30° (NNE) 20:07:54 437.485
NO-84 25 Jul 20:03:43 20:03:55 10° 233° (SW) 20:04:06 435.350 FM
KAITUO 1B 25 Jul 20:03:59 20:06:09 15° 270° (W) 20:08:19 145.475/437.950
LilacSat-2 25 Jul 20:09:08 20:09:56 11° 273° (W) 20:10:44 437.200
STARS 25 Jul 20:13:23 20:17:10 28° 296° (WNW) 20:20:55 437.465
AO-73 25 Jul 20:14:44 20:18:33 30° 66° (ENE) 20:22:18 145.935
CUTE 1.7 + AOD 2 25 Jul 20:15:39 20:19:43 50° 261° (W) 20:23:50 437.475
SEEDS 25 Jul 20:26:30 20:30:36 60° 259° (W) 20:34:45 437.485
CUTE-I 25 Jul 20:29:59 20:33:04 15° 273° (W) 20:36:11 437.470
BEESAT 2 25 Jul 20:43:12 20:46:13 19° 30° (NNE) 20:49:12 435.950
XW-2A 25 Jul 20:54:54 20:57:42 23° 265° (W) 21:00:29 145.665 - 145.685
UWE-3 25 Jul 20:58:10 21:02:41 59° 260° (W) 21:07:04 435.000/436.395/437.385
YUBILEINY 25 Jul 20:59:13 21:07:42 49° 290° (WNW) 21:16:14 435.215
Tancredo 1 25 Jul 21:00:53 21:03:17 23° 145° (SE) 21:05:43 437.200
AAUSAT CUBESAT 2 25 Jul 21:08:11 21:12:08 45° 261° (W) 21:16:08 437.432
ZACube-1 25 Jul 21:10:21 21:14:47 75° 256° (WSW) 21:19:08 437.345
STRAND 1 25 Jul 21:11:24 21:16:33 83° 105° (ESE) 21:21:40 437.568
AO-85 25 Jul 21:16:12 21:20:17 61° 47° (NE) 21:24:38 145.980
nSIGHT-1 25 Jul 21:29:38 21:32:05 20° 142° (SE) 21:34:32 .
Oscar 11 25 Jul 21:35:23 21:39:38 60° 259° (W) 21:43:54 .
HO-68 25 Jul 21:37:34 21:42:32 20° 273° (W) 21:47:32 435.675
BEESAT 3 25 Jul 21:38:59 21:43:03 89° 216° (SW) 21:47:01 437.485
CUBEBUG 2 25 Jul 21:39:55 21:42:59 17° 271° (W) 21:46:01 437.445
AO-73 25 Jul 21:50:43 21:54:43 34° 264° (W) 21:58:40 145.935
RS-15 25 Jul 22:00:10 22:11:38 40° 8° (N) 22:22:44 29.354- 29.394
DELFI C3 25 Jul 22:03:41 22:07:37 76° 73° (ENE) 22:11:36 145.870
UNISAT 6 25 Jul 22:12:59 22:14:40 12° 86° (E) 22:16:21 437.425
EO-88 25 Jul 22:19:50 22:23:28 74° 73° (ENE) 22:27:06 145.990 - 145.960
BEESAT 2 25 Jul 22:20:27 22:24:33 86° 51° (NE) 22:28:35 435.950
LO-87 25 Jul 22:23:30 22:25:26 14° 61° (ENE) 22:27:22 145.935 - 145.965
ISS 25 Jul 22:23:34 22:26:42 46° 151° (SSE) 22:29:50 437.550
Tancredo 1 25 Jul 22:35:30 22:38:26 84° 340° (NNW) 22:41:24 437.200
FO-29 25 Jul 22:44:27 22:51:31 51° 97° (E) 22:57:46 435.910
ESTCUBE 1 25 Jul 22:49:24 22:52:47 22° 61° (ENE) 22:56:11 437.505/2401.250
STRAND 1 25 Jul 22:51:43 22:55:07 18° 304° (NW) 22:58:30 437.568
TIGRISAT 25 Jul 22:55:26 22:59:13 28° 95° (E) 23:02:54 435.000
AO-85 25 Jul 22:57:15 23:00:22 20° 245° (WSW) 23:03:38 145.980
YUBILEINY 25 Jul 23:03:16 23:07:17 14° 317° (NW) 23:11:19 435.215
nSIGHT-1 25 Jul 23:04:54 23:08:08 83° 160° (SSE) 23:11:23 .
BEESAT 3 25 Jul 23:18:27 23:19:57 12° 250° (WSW) 23:21:27 437.485
PRISM 25 Jul 23:29:49 23:33:57 54° 101° (E) 23:38:02 437.425
VELOX 1 25 Jul 23:32:24 23:35:00 15° 57° (ENE) 23:37:36 145.980
DELFI C3 25 Jul 23:41:36 23:42:55 11° 273° (W) 23:44:14 145.870
UNISAT 6 25 Jul 23:47:39 23:52:02 82° 284° (WNW) 23:56:18 437.425
LO-87 25 Jul 23:54:49 23:58:25 60° 259° (WSW) 00:02:03 145.935 - 145.965
EO-88 25 Jul 23:57:27 23:57:37 10° 273° (W) 23:57:46 145.990 - 145.960
BEESAT 2 25 Jul 23:59:48 00:01:41 13° 249° (WSW) 00:03:34 435.950
ISS 25 Jul 23:59:54 00:03:09 64° 351° (N) 00:06:24 437.550
POLYITAN 1 26 Jul 00:03:50 00:04:07 10° 86° (E) 00:04:23 437.675
Tancredo 1 26 Jul 00:11:06 00:14:00 55° 3° (N) 00:16:54 437.200
O/OREOS (USA 219) 26 Jul 00:13:42 00:17:19 23° 48° (NE) 00:20:55 437.305
RS-15 26 Jul 00:14:34 00:26:50 66° 40° (NE) 00:38:28 29.354- 29.394
QB50P2 26 Jul 00:15:00 00:17:28 15° 89° (E) 00:19:55 145.880/145.840
SPROUT 26 Jul 00:15:06 00:19:04 37° 67° (ENE) 00:23:02 437.525
UKube-1 26 Jul 00:18:11 00:18:51 10° 53° (NE) 00:19:31 .
M-CUBED/EXP-1 PRIME 26 Jul 00:21:12 00:25:46 66° 108° (ESE) 00:30:25 437.505
AIST 2D 26 Jul 00:24:04 00:27:16 32° 97° (E) 00:30:26 435.315
ESTCUBE 1 26 Jul 00:24:53 00:29:16 53° 260° (W) 00:33:40 437.505/2401.250
NANOSAT C BR1 26 Jul 00:26:02 00:28:41 16° 90° (E) 00:31:18 145.865
EO-79 26 Jul 00:26:24 00:29:18 18° 91° (E) 00:32:11 145.935-145.965
FO-29 26 Jul 00:29:41 00:36:23 40° 300° (WNW) 00:42:24 435.910
TIGRISAT 26 Jul 00:32:01 00:35:57 34° 293° (WNW) 00:39:49 435.000
nSIGHT-1 26 Jul 00:41:29 00:44:41 57° 0° (N) 00:47:52 .
50 SAT 26 Jul 00:50:07 00:53:03 28° 67° (ENE) 00:56:02 437.505
PRISM 26 Jul 01:05:54 01:08:52 19° 299° (WNW) 01:11:49 437.425
VELOX 1 26 Jul 01:06:26 01:10:52 80° 256° (WSW) 01:15:21 145.980
DX 1 26 Jul 01:09:19 01:13:23 39° 67° (ENE) 01:17:29 434.975-435.025
UNISAT 6 26 Jul 01:26:19 01:28:01 12° 305° (NW) 01:29:42 437.425
DUCHIFAT 1 26 Jul 01:32:26 01:36:37 65° 102° (ESE) 01:40:46 145.980
Oscar 19 26 Jul 01:33:33 01:35:16 12° 85° (E) 01:36:59 437.125/150
POLYITAN 1 26 Jul 01:36:20 01:40:34 87° 101° (E) 01:44:46 437.675
ISS 26 Jul 01:36:34 01:39:49 68° 11° (N) 01:43:05 437.550
Tancredo 1 26 Jul 01:46:32 01:49:29 68° 201° (SSW) 01:52:25 437.200
QB50P2 26 Jul 01:49:30 01:53:42 64° 288° (WNW) 01:57:51 145.880/145.840
UKube-1 26 Jul 01:49:45 01:54:02 67° 72° (ENE) 01:58:21 .
SPROUT 26 Jul 01:51:25 01:55:03 26° 266° (W) 01:58:42 437.525
O/OREOS (USA 219) 26 Jul 01:52:39 01:57:03 56° 248° (WSW) 02:01:27 437.305
M-CUBED/EXP-1 PRIME 26 Jul 01:56:21 01:59:47 21° 305° (NW) 02:03:16 437.505
AIST 2D 26 Jul 01:57:39 02:00:18 20° 294° (WNW) 02:02:56 435.315
BUGSAT 1 26 Jul 01:57:40 02:01:30 36° 97° (E) 02:05:15 437.445
NANOSAT C BR1 26 Jul 02:00:38 02:04:47 59° 289° (WNW) 02:08:54 145.865
EO-79 26 Jul 02:01:16 02:05:23 53° 289° (WNW) 02:09:28 145.935-145.965
Gurwin Techsat 1B 26 Jul 02:05:54 02:09:02 15° 87° (E) 02:12:07 435.225
BEESAT 26 Jul 02:09:45 02:12:52 17° 57° (ENE) 02:15:57 436.000
FO-29 26 Jul 02:17:15 02:19:21 11° 323° (NW) 02:21:24 435.910
nSIGHT-1 26 Jul 02:17:59 02:21:12 83° 203° (SSW) 02:24:27 .
ITUPSAT 1 26 Jul 02:23:01 02:26:37 22° 59° (ENE) 02:30:13 437.325
50 SAT 26 Jul 02:23:03 02:25:48 22° 265° (W) 02:28:34 437.505
RS-15 26 Jul 02:27:40 02:39:07 52° 247° (WSW) 02:50:00 29.354- 29.394
DX 1 26 Jul 02:46:03 02:49:41 26° 266° (W) 02:53:22 434.975-435.025
VELOX 1 26 Jul 02:47:49 02:48:04 10° 275° (W) 02:48:18 145.980
MOZHAYETS 4 26 Jul 03:00:48 03:04:49 31° 65° (ENE) 03:08:51
DUCHIFAT 1 26 Jul 03:09:11 03:11:49 16° 301° (WNW) 03:14:27 145.980
Oscar 19 26 Jul 03:10:17 03:15:28 75° 104° (ESE) 03:20:39 437.125/150
ISS 26 Jul 03:13:08 03:16:13 39° 210° (SSW) 03:19:17 437.550
POLYITAN 1 26 Jul 03:13:46 03:15:43 13° 303° (WNW) 03:17:41 437.675
Tancredo 1 26 Jul 03:22:45 03:24:27 14° 221° (SW) 03:26:08 437.200
AO-7 26 Jul 03:27:40 03:32:51 17° 85° (E) 03:37:59 .
UKube-1 26 Jul 03:27:59 03:30:31 15° 270° (W) 03:33:05 .
BUGSAT 1 26 Jul 03:33:19 03:36:43 25° 296° (WNW) 03:40:04 437.445
KKS-1 26 Jul 03:37:43 03:39:04 11° 53° (NE) 03:40:26 437.445
CUBESAT XI-V 26 Jul 03:39:08 03:42:13 18° 59° (ENE) 03:45:22 437.345
Gurwin Techsat 1B 26 Jul 03:44:20 03:49:42 87° 282° (WNW) 03:55:02 435.225
BEESAT 26 Jul 03:45:17 03:50:04 78° 256° (WSW) 03:54:52 436.000
nSIGHT-1 26 Jul 03:54:49 03:57:17 20° 218° (SW) 03:59:43 .
ITUPSAT 1 26 Jul 03:59:19 04:04:04 60° 259° (WSW) 04:08:49 437.325
MOZHAYETS 4 26 Jul 04:37:44 04:41:56 35° 264° (W) 04:46:08
RS-15 26 Jul 04:44:58 04:48:12 11° 271° (W) 04:51:24 29.354- 29.394
PCSat 26 Jul 04:48:25 04:52:06 19° 106° (ESE) 04:55:46 145.827
Oscar 19 26 Jul 04:50:35 04:54:15 20° 303° (WNW) 04:57:55 437.125/150
ITAMSAT 1 26 Jul 05:04:03 05:09:16 66° 103° (ESE) 05:14:25 435.822/435.867
YUBILEINY 26 Jul 05:06:57 05:14:30 30° 61° (ENE) 05:21:56 435.215
KKS-1 26 Jul 05:10:21 05:14:48 70° 73° (ENE) 05:19:18 437.445
CUBESAT XI-V 26 Jul 05:14:33 05:19:07 68° 258° (WSW) 05:23:44 437.345
AO-7 26 Jul 05:18:43 05:27:08 73° 107° (ESE) 05:35:27 .
Gurwin Techsat 1B 26 Jul 05:25:35 05:28:55 17° 306° (NW) 05:32:15 435.225
BEESAT 26 Jul 05:27:26 05:28:39 11° 275° (W) 05:29:52 436.000
STARS 26 Jul 05:37:06 05:41:27 58° 70° (ENE) 05:45:50 437.465
SO-50 26 Jul 06:04:22 06:06:45 14° 111° (ESE) 06:09:08 436.795
PCSat 26 Jul 06:29:23 06:34:50 83° 306° (NW) 06:40:19 145.827
XW-2D 26 Jul 06:42:55 06:45:24 17° 91° (E) 06:47:53 145.860 - 145.880
ITAMSAT 1 26 Jul 06:44:18 06:48:18 23° 302° (WNW) 06:52:16 435.822/435.867
KKS-1 26 Jul 06:49:10 06:51:51 15° 271° (W) 06:54:32 437.445
DOVE 4 26 Jul 06:51:04 06:56:19 57° 100° (E) 07:01:21 437.250
XW-2B 26 Jul 06:52:44 06:55:36 20° 93° (E) 06:58:27 145.730 - 145.750
STRAND 1 26 Jul 06:53:24 06:57:50 30° 62° (ENE) 07:02:16 437.568
CUTE-I 26 Jul 06:59:58 07:04:24 26° 92° (E) 07:08:48 437.470
YUBILEINY 26 Jul 07:03:29 07:12:15 76° 265° (W) 07:20:56 435.215
XW-2C 26 Jul 07:09:46 07:13:08 31° 96° (E) 07:16:32 145.795 - 145.815
HO-68 26 Jul 07:11:36 07:15:08 14° 83° (E) 07:18:39 435.675
AO-7 26 Jul 07:12:03 07:19:21 35° 309° (NW) 07:26:37 .
NUDT-PHONESAT 26 Jul 07:12:58 07:16:04 25° 95° (E) 07:19:09 437.300
STARS 26 Jul 07:15:04 07:18:09 18° 269° (W) 07:21:15 437.465
FO-29 26 Jul 07:20:18 07:23:28 13° 40° (NE) 07:26:37 435.910
KAITUO 1B 26 Jul 07:28:50 07:32:21 38° 98° (E) 07:35:52 145.475/437.950
LilacSat-2 26 Jul 07:34:18 07:38:04 62° 101° (ESE) 07:41:50 437.200
SO-50 26 Jul 07:42:00 07:46:33 89° 143° (SE) 07:51:06 436.795
XW-2F 26 Jul 07:46:26 07:50:11 77° 103° (ESE) 07:53:57 145.980 - 146.000
CUTE 1.7 + AOD 2 26 Jul 07:56:25 07:59:39 21° 92° (E) 08:02:51 437.475
SEEDS 26 Jul 08:06:34 08:09:23 17° 90° (E) 08:12:12 437.485
XW-2A 26 Jul 08:12:35 08:14:32 15° 91° (E) 08:16:29 145.665 - 145.685
PCSat 26 Jul 08:14:43 08:19:03 23° 328° (NNW) 08:23:23 145.827
XW-2D 26 Jul 08:16:13 08:19:50 46° 289° (WNW) 08:23:27 145.860 - 145.880
XW-2B 26 Jul 08:26:25 08:29:55 37° 291° (WNW) 08:33:25 145.730 - 145.750
DOVE 4 26 Jul 08:29:19 08:33:36 26° 299° (WNW) 08:37:48 437.250
STRAND 1 26 Jul 08:31:54 08:36:50 46° 261° (W) 08:41:48 437.568
CUTE-I 26 Jul 08:39:32 08:44:47 55° 292° (WNW) 08:49:58 437.470
UWE-3 26 Jul 08:44:03 08:47:10 20° 91° (E) 08:50:13 435.000/436.395/437.385
XW-2C 26 Jul 08:44:08 08:47:15 25° 294° (WNW) 08:50:22 145.795 - 145.815
AAUSAT CUBESAT 2 26 Jul 08:46:07 08:49:18 21° 92° (E) 08:52:29 437.432
NUDT-PHONESAT 26 Jul 08:46:46 08:49:57 29° 293° (WNW) 08:53:10 437.300
ZACube-1 26 Jul 08:55:25 08:57:51 15° 89° (E) 09:00:14 437.345
HO-68 26 Jul 08:57:04 09:04:14 68° 104° (ESE) 09:11:21 435.675
FO-29 26 Jul 08:59:24 09:06:33 42° 61° (ENE) 09:13:45 435.910
YUBILEINY 26 Jul 09:02:05 09:07:31 19° 287° (WNW) 09:12:58 435.215
KAITUO 1B 26 Jul 09:03:22 09:06:09 20° 296° (WNW) 09:08:55 145.475/437.950
AO-7 26 Jul 09:06:29 09:09:41 13° 334° (NNW) 09:12:52 .
LilacSat-2 26 Jul 09:09:48 09:11:54 14° 299° (WNW) 09:14:01 437.200
UNISAT 6 26 Jul 09:14:58 09:18:22 21° 61° (ENE) 09:21:43 437.425
Oscar 11 26 Jul 09:18:48 09:21:52 19° 91° (E) 09:24:56 .
XW-2F 26 Jul 09:22:17 09:23:47 12° 301° (WNW) 09:25:16 145.980 - 146.000
SO-50 26 Jul 09:24:00 09:27:36 23° 331° (NNW) 09:31:12 436.795
CUBEBUG 2 26 Jul 09:24:21 09:28:40 81° 103° (ESE) 09:32:51 437.445
CUTE 1.7 + AOD 2 26 Jul 09:31:38 09:35:43 46° 290° (WNW) 09:39:47 437.475
AO-73 26 Jul 09:33:53 09:37:38 32° 96° (E) 09:41:19 145.935
M-CUBED/EXP-1 PRIME 26 Jul 09:38:02 09:40:55 20° 54° (NE) 09:43:57 437.505
SEEDS 26 Jul 09:41:17 09:45:25 56° 288° (WNW) 09:49:33 437.485
XW-2A 26 Jul 09:44:20 09:47:29 40° 289° (WNW) 09:50:38 145.665 - 145.685
TIGRISAT 26 Jul 09:57:37 10:01:59 44° 69° (ENE) 10:06:18 435.000
PCSat 26 Jul 10:02:12 10:04:31 13° 354° (N) 10:06:51 145.827
UWE-3 26 Jul 10:19:51 10:23:53 46° 290° (WNW) 10:27:51 435.000/436.395/437.385
AAUSAT CUBESAT 2 26 Jul 10:20:59 10:24:59 44° 290° (WNW) 10:28:58 437.432
CUTE-I 26 Jul 10:22:06 10:23:43 11° 312° (NW) 10:25:18 437.470
PRISM 26 Jul 10:22:47 10:26:52 69° 72° (ENE) 10:31:00 437.425
ZACube-1 26 Jul 10:30:26 10:34:34 61° 287° (WNW) 10:38:38 437.345
FO-29 26 Jul 10:43:45 10:51:20 57° 261° (W) 10:59:04 435.910
HO-68 26 Jul 10:45:23 10:51:31 32° 305° (NW) 10:57:37 435.675
UNISAT 6 26 Jul 10:50:09 10:54:43 58° 259° (W) 10:59:13 437.425
Oscar 11 26 Jul 10:54:06 10:58:19 53° 289° (WNW) 11:02:31 .
DUCHIFAT 1 26 Jul 10:55:32 10:57:07 12° 56° (NE) 10:58:42 145.980
POLYITAN 1 26 Jul 10:59:03 11:01:35 16° 58° (ENE) 11:04:05 437.675
CUBEBUG 2 26 Jul 11:02:29 11:04:40 14° 303° (WNW) 11:06:50 437.445
AIST 2D 26 Jul 11:02:38 11:05:29 24° 67° (ENE) 11:08:21 435.315
SO-50 26 Jul 11:07:45 11:09:40 12° 355° (N) 11:11:36 436.795
AO-73 26 Jul 11:10:15 11:13:49 28° 294° (WNW) 11:17:22 145.935
DELFI C3 26 Jul 11:10:49 11:14:51 69° 103° (ESE) 11:18:50 145.870
M-CUBED/EXP-1 PRIME 26 Jul 11:11:21 11:14:59 49° 255° (WSW) 11:18:58 437.505
QB50P2 26 Jul 11:11:21 11:14:34 21° 62° (ENE) 11:17:46 145.880/145.840
EO-88 26 Jul 11:17:45 11:21:20 52° 100° (E) 11:24:54 145.990 - 145.960
NO-84 26 Jul 11:21:15 11:23:27 18° 133° (SE) 11:25:47 435.350 FM
NANOSAT C BR1 26 Jul 11:21:53 11:25:10 22° 63° (ENE) 11:28:27 145.865
EO-79 26 Jul 11:22:35 11:26:02 24° 63° (ENE) 11:29:29 145.935-145.965
TIGRISAT 26 Jul 11:35:02 11:38:50 25° 267° (W) 11:42:37 435.000
PCSat 26 Jul 11:46:54 11:50:17 16° 21° (NNE) 11:53:40 145.827
PRISM 26 Jul 12:00:32 12:02:38 14° 271° (W) 12:04:43 437.425
ESTCUBE 1 26 Jul 12:13:08 12:16:49 24° 93° (E) 12:20:28 437.505/2401.250
DUCHIFAT 1 26 Jul 12:27:51 12:32:05 83° 73° (ENE) 12:36:20 145.980
POLYITAN 1 26 Jul 12:32:35 12:36:50 73° 257° (WSW) 12:41:07 437.675
FO-29 26 Jul 12:34:51 12:38:01 13° 282° (WNW) 12:41:13 435.910
AIST 2D 26 Jul 12:35:37 12:38:37 27° 265° (W) 12:41:37 435.315
AO-7 26 Jul 12:43:52 12:47:45 14° 29° (NNE) 12:51:39 .
QB50P2 26 Jul 12:45:54 12:50:03 49° 260° (W) 12:54:12 145.880/145.840
DELFI C3 26 Jul 12:46:52 12:49:06 15° 300° (WNW) 12:51:21 145.870
SO-50 26 Jul 12:49:02 12:51:57 16° 20° (NNE) 12:54:52 436.795
LO-87 26 Jul 12:50:43 12:54:21 89° 284° (WNW) 12:57:56 145.935 - 145.965
BUGSAT 1 26 Jul 12:50:55 12:54:58 46° 70° (ENE) 12:59:01 437.445
EO-88 26 Jul 12:52:27 12:54:39 15° 298° (WNW) 12:56:50 145.990 - 145.960
VELOX 1 26 Jul 12:53:17 12:55:48 15° 89° (E) 12:58:16 145.980
Oscar 19 26 Jul 12:53:23 12:57:40 28° 61° (ENE) 13:01:59 437.125/150
NANOSAT C BR1 26 Jul 12:56:31 13:00:37 46° 261° (W) 13:04:43 145.865
NO-84 26 Jul 12:57:21 13:00:29 76° 332° (NNW) 13:03:56 435.350 FM
EO-79 26 Jul 12:57:34 13:01:36 41° 262° (W) 13:05:40 145.935-145.965
